Location: Belfast
(54.5830°N, 5.9330°W)
Time: 14:07:10
(UTC+01:00)

ISS - Pass Details

Date: 25 May 2017
Orbit: 402 x 408 km, 51.6° (Epoch: 26 May)

Event Time Altitude Azimuth Distance (km) Brightness Sun altitude
Rises 23:09:56 0° 231° (SW) 2,328 -0.1 -9.3°
Reaches altitude 10° 23:12:10 10° 219° (SW) 1,469 -1.2 -9.5°
Maximum altitude 23:15:04 29° 158° (SSE) 784 -3.0 -9.7°
Drops below altitude 10° 23:17:58 10° 96° (E) 1,470 -1.3 -9.9°
Sets 23:20:12 0° 85° (E) 2,332 -0.2 -10.0°
